Погода в Пукове

Украина / Ивано-Франковская область     49°23′59″N   24°41′33″E
В апреле 2022 года жителям России запретили посещать сайт meteo.paraplan.net по решению Генеральной прокуратуры. Аудитория сайта уменьшилась в 10 раз. Владельцы сайта не видят смысла в поддержке погодного сервера в таких условиях. Сайт будет закрыт в октябре.
темп.,
°C
ветер,
м/с
пор.,
м/с
влажн.,
%
обл.,
%
осадки,
мм/ч
давл.,
гПа
погр.,
м
30 сентября, пт
пт3000:00+11сз119636 0.3 100844
03:00+9ссз2299100 0.3 101020
06:00+9св229886 0.0 101114
09:00+11вюв1293100 0.0 1012100
12:00+16юв3478100 0.0 1012439
15:00+18ююв5869100 0.1 1012840
18:00+15ююв3986100 1.9 1012270
21:00+14ю338874 2.5 101350
1 октября, сб
сб100:00+12зюз229255 0.3 101434
03:00+11зсз2791100 0.3 1016229
06:00+9юз1193100 0.0 101710
09:00+11ю2595100 1.1 1016155
12:00+12ю4996100 1.8 1016321
15:00+13з2894100 4.3 1015365
18:00+13юв1195100 0.6 101317
21:00+13ю2297100 3.6 101227
2 октября, вс
вс200:00+13ююв2399100 12.2 101086
03:00+12зсз2699100 12.9 1010269
06:00+11сз71391100 0.2 1011726
09:00+10зсз6119399 1.4 1012695
12:00+12зсз81177100 0.3 10131102
15:00+11зсз81289100 1.4 1013985
18:00+11зсз81385100 0.4 1013833
21:00+10зсз5129099 0.9 1014745
3 октября, пн
пн300:00+9з61392100 0.8 1015522
03:00+9зсз6139170 1.1 1014635
06:00+8зсз6139554 0.3 1015537
09:00+9зсз6138999 0.3 1015591
12:00+10зсз81185100 0.5 1016977
15:00+10зсз71187100 0.5 10161087
18:00+9з71289100 0.1 1017749
21:00+9з6128897 0.2 1017740
4 октября, вт
вт400:00+9з61289100 0.2 1016595
03:00+9з61390100 0.4 1016599
06:00+9з71487100 0.1 1015762
09:00+9з71388100 1.2 1015749
12:00+10зсз71183100 1.9 1016719
15:00+12зсз797384 3.6 10161323
18:00+10сз488389 1.5 1017380
21:00+8зсз4109590 2.4 1019326